Location: Celina Elementary School
(33.3262°N, 96.7767°W)
Time: 08:38:18
(UTC+00:00)

CZ-2D R/B - Pass Details

Date: 26 November 2021
Orbit: 520 x 535 km, 97.4° (Epoch: 19 January)

Event Time Altitude Azimuth Distance (km) Brightness Sun altitude
Rises 23:44:13 0° 143° (SE) 2,671 6.7 -5.4°
Reaches altitude 10° 23:46:33 10° 130° (SE) 1,783 5.7 -5.9°
Maximum altitude 23:49:48 26° 73° (ENE) 1,061 4.2 -6.5°
Drops below altitude 10° 23:53:04 10° 15° (NNE) 1,787 5.6 -7.2°
Sets 23:55:24 0° 3° (N) 2,678 6.6 -7.6°
